La Junta, CO

12:07 PM MST on February 20, 2017 (GMT -0700)
La Junta Municipal

Weather History for KLHX - January, 2014

Change the Weather History Date:

Tuesday, January 21, 2014

  Actual Average Record
Temperature  
Mean Temperature 43 °F 31 °F  
Max Temperature 69 °F 45 °F 74 °F (2009)
Min Temperature 17 °F 17 °F -12 °F (1966)
Degree Days  
Heating Degree Days 22 34  
Month to date heating degree days 678 718  
Since 1 July heating degree days 2757 2921  
Cooling Degree Days 0 0  
Month to date cooling degree days 0 0  
Year to date cooling degree days 0 0  
Moisture  
Dew Point 2 °F    
Average Humidity 35    
Maximum Humidity 68    
Minimum Humidity 2    
Precipitation  
Precipitation 0.00 in 0.01 in 0.17 in (1983)
Month to date precipitation 0.02  
Year to date precipitation 0.02  
Sea Level Pressure  
Sea Level Pressure 30.20 in    
Wind  
Wind Speed 9 mph (West)    
Max Wind Speed 18 mph    
Max Gust Speed 23 mph    
Visibility 10 miles    
Events      
T = Trace of Precipitation, MM = Missing Value Source: NWS Daily Summary

Daily Weather History Graph

Daily Weather History Graph

Search for Another Location

Airport or City:

Trip Planner

Search our weather history database for the weather conditions in past years. The results will help you decide how hot, cold, wet, or windy it might be!

Date:

Astronomy

Jan. 21, 2014 Rise Set
Actual Time 7:06 AM MST 5:04 PM MST
Civil Twilight 6:37 AM MST 5:33 PM MST
Nautical Twilight 6:05 AM MST 6:05 PM MST
Astronomical Twilight 5:34 AM MST 6:36 PM MST
Moon 10:33 PM MST (1/21) 9:42 AM MST (1/21)
Length of Visible Light 10h 55m
Length of Day
9h 58m
Waning Gibbous, 74% of the Moon is Illuminated
Jan 21
Waning Gibbous
Jan 23
Last Quarter
Jan 30
New
Feb 6
First Quarter
Feb 14
Full

Hourly Weather History & Observations

Time (MST) Temp. Windchill Dew Point Humidity Pressure Visibility Wind Dir Wind Speed Gust Speed Precip Events Conditions
12:53 AM 27.0 °F 21.6 °F 12.0 °F 53% 30.40 in 10.0 mi SSW 4.6 mph - N/A   Clear
1:53 AM 27.0 °F 17.3 °F 14.0 °F 58% 30.38 in 10.0 mi SSW 10.4 mph - N/A   Clear
2:53 AM 26.1 °F 15.6 °F 12.9 °F 58% 30.38 in 10.0 mi SW 11.5 mph - N/A   Clear
3:53 AM 24.1 °F 13.7 °F 12.0 °F 60% 30.34 in 10.0 mi SW 10.4 mph - N/A   Clear
4:53 AM 19.9 °F 8.6 °F 10.0 °F 65% 30.34 in 10.0 mi West 10.4 mph - N/A   Clear
5:53 AM 17.1 °F 5.0 °F 9.0 °F 71% 30.34 in 10.0 mi West 10.4 mph - N/A   Clear
6:53 AM 19.0 °F 9.0 °F 10.9 °F 71% 30.33 in 10.0 mi West 8.1 mph - N/A   Clear
7:53 AM 21.0 °F 7.6 °F 12.0 °F 68% 30.30 in 10.0 mi West 15.0 mph - N/A   Clear
8:53 AM 27.0 °F 16.7 °F 12.9 °F 56% 30.27 in 10.0 mi West 11.5 mph - N/A   Clear
9:53 AM 36.0 °F 29.0 °F 12.9 °F 39% 30.27 in 10.0 mi West 9.2 mph - N/A   Clear
10:53 AM 46.9 °F - 12.0 °F 24% 30.20 in 10.0 mi West 10.4 mph - N/A   Clear
11:53 AM 57.0 °F - 3.0 °F 11% 30.10 in 10.0 mi West 16.1 mph - N/A   Clear
12:53 PM 63.0 °F - -2.0 °F 7% 30.05 in 10.0 mi WNW 12.7 mph - N/A   Clear
1:53 PM 66.0 °F - -4.0 °F 6% 30.01 in 10.0 mi West 9.2 mph - N/A   Clear
2:53 PM 68.0 °F - -23.1 °F 4% 30.00 in 10.0 mi West 8.1 mph - N/A   Clear
3:53 PM 66.9 °F - -17.0 °F 4% 30.00 in 10.0 mi West 8.1 mph - N/A   Clear
4:53 PM 63.0 °F - -18.9 °F 4% 30.02 in 10.0 mi Calm Calm - N/A   Clear
5:53 PM 57.9 °F - -11.9 °F 5% 30.05 in 10.0 mi Calm Calm - N/A   Clear
6:53 PM 43.0 °F 38.2 °F 3.9 °F 20% 30.12 in 10.0 mi East 8.1 mph - N/A   Clear
7:53 PM 37.0 °F 29.3 °F 5.0 °F 26% 30.16 in 10.0 mi NE 11.5 mph - N/A   Clear
8:53 PM 36.0 °F 31.1 °F -2.0 °F 20% 30.17 in 10.0 mi North 5.8 mph - N/A   Clear
9:53 PM 30.0 °F 21.7 °F -4.0 °F 23% 30.18 in 10.0 mi North 9.2 mph - N/A   Clear
10:53 PM 28.9 °F 21.9 °F -2.9 °F 25% 30.17 in 10.0 mi WNW 6.9 mph - N/A   Clear
11:53 PM 26.1 °F 17.6 °F -2.0 °F 30% 30.15 in 10.0 mi WNW 8.1 mph - N/A   Clear